Theta_e
293 292 291 291 291 291 290 290 290 290 290 290 290 290 290 290 290 290 290 291 290 290 290 290 291 292 293 294 295 295 295 294 292 293 296 297 296 297 297 298 297 298 298
291 290 290 290 289 288 288 288 288 288 288 288 288 288 288 288 289 288 288 289 288 287 288 288 289 291 289 290 290 290 291 291 291 288 291 292 292 294 294 294 296 296 296
290 289 288 287 287 287 287 287 287 286 286 287 287 286 286 287 287 287 288 288 287 287 287 287 287 287 286 286 287 288 288 289 288 287 287 289 290 291 291 292 292 293 292
288 287 286 286 286 286 286 285 285 285 285 285 286 286 286 286 286 286 287 287 286 286 286 286 286 285 284 285 286 286 287 286 286 285 285 286 288 289 290 288 288 290 291
286 286 286 285 285 284 283 283 283 283 284 284 284 283 283 284 286 285 285 285 284 285 284 284 284 285 286 287 286 286 286 285 285 284 284 285 285 286 286 288 287 288 288
285 284 284 283 282 282 282 282 282 282 281 281 281 281 281 283 286 287 286 284 285 284 283 284 284 285 286 287 287 288 287 285 284 284 284 283 284 285 286 285 285 283 282
283 282 282 282 281 281 280 280 280 280 280 280 280 280 280 280 285 286 286 284 284 284 283 283 283 284 284 284 286 287 287 288 289 286 284 283 283 285 285 284 284 284 283
282 281 281 280 279 279 278 278 278 278 278 278 278 278 278 280 284 286 286 284 284 284 284 284 283 283 284 284 285 285 285 285 285 286 285 285 285 286 286 284 283 283 284
281 280 279 279 276 276 273 275 276 276 275 274 278 274 274 277 283 285 285 283 283 283 284 284 284 283 285 287 285 283 284 284 286 288 288 288 289 289 286 283 280 280 280
280 279 278 277 274 272 274 273 274 272 276 276 275 274 274 273 281 285 285 283 282 283 284 284 284 285 286 287 284 284 282 282 282 283 284 285 283 280 281 277 276 276 275
278 277 275 274 272 271 270 271 268 267 271 267 270 270 272 274 276 283 284 283 281 283 283 282 284 286 287 287 288 284 284 283 283 282 277 275 274 275 276 275 275 274 273
274 273 271 268 270 270 263 263 264 262 263 266 266 268 272 274 279 281 283 284 285 283 281 283 284 286 287 288 286 286 285 284 276 273 269 271 272 273 275 276 276 275 276
270 267 266 265 266 266 262 263 264 262 262 265 268 268 270 274 275 281 282 283 285 283 284 285 286 286 286 284 285 285 282 282 278 270 274 273 276 277 278 277 277 276 275
266 266 265 264 264 263 268 268 262 262 262 265 266 269 272 273 275 276 278 281 282 283 285 282 282 284 284 283 280 281 280 280 279 275 273 275 276 273 274 275 272 273 270
265 266 265 264 262 264 266 265 267 268 267 268 271 274 274 274 276 283 282 280 281 282 284 269 270 271 273 276 277 275 275 275 275 277 277 275 272 274 274 273 272 269 268
265 266 265 264 263 264 264 264 271 274 276 277 279 279 279 281 282 281 281 281 282 284 278 268 267 270 271 273 272 271 272 272 272 274 274 273 274 274 271 270 268 265 263
263 263 262 264 262 261 261 261 260 267 273 275 278 280 279 279 279 280 280 280 281 276 267 265 266 270 270 271 270 269 268 269 270 270 270 269 270 269 268 267 268 265 262
257 260 258 258 257 257 258 259 258 259 260 264 273 276 276 276 278 278 277 275 267 266 263 263 264 266 267 268 269 268 267 267 268 267 266 265 265 263 262 264 264 261 259
256 255 256 255 256 258 258 258 259 260 261 263 262 268 266 273 273 272 271 258 257 258 259 261 262 263 264 265 266 266 265 265 264 263 260 258 259 258 257 258 260 260 259
253 257 256 255 256 257 258 259 260 260 262 263 259 259 258 259 256 254 254 255 256 256 257 258 258 258 261 261 262 262 261 260 260 259 259 255 255 254 256 254 254 255 253
256 255 259 257 256 257 258 259 260 260 259 259 258 259 273 259 255 253 254 256 260 260 259 256 256 257 260 259 258 259 258 257 256 257 254 250 249 251 250 253 252 251 250
257 257 255 257 257 257 257 259 257 257 257 257 257 258 270 258 255 256 258 259 261 261 261 260 260 259 259 259 258 258 257 256 255 255 252 248 248 248 249 249 249 250 249
256 256 256 255 256 258 257 254 255 255 254 254 255 256 255 254 255 256 258 260 261 262 262 261 261 260 260 259 259 259 257 256 256 250 248 247 246 247 246 247 247 248 248
257 258 258 256 255 254 253 253 253 255 254 253 252 252 254 254 253 255 257 260 260 258 260 261 261 260 260 259 258 257 256 255 254 251 248 248 247 245 245 245 246 247 248
256 256 256 254 253 253 253 253 255 253 252 253 253 252 253 253 254 254 257 260 260 260 261 261 260 260 260 259 258 257 256 258 255 251 245 245 246 244 244 244 245 246 247
253 253 253 253 255 256 256 257 256 254 254 253 253 253 253 254 255 255 257 260 259 260 260 260 260 259 259 259 258 258 258 260 258 255 251 249 248 245 243 245 244 245 247
Wind_Speed
9 8 9 7 7 7 7 6 6 5 6 6 6 6 6 6 5 5 5 5 6 6 6 6 9 6 6 6 6 7 7 7 13 21 12 14 16 14 13 9 8 11 10
8 9 9 7 6 7 6 5 5 5 5 5 5 5 5 5 5 6 6 6 6 8 9 8 10 8 9 9 6 9 8 9 10 20 18 15 17 16 15 15 12 9 10
8 8 7 7 6 6 6 5 5 4 4 4 5 6 7 7 7 7 5 5 6 7 8 9 10 10 10 8 9 9 10 10 10 11 17 13 16 12 14 12 13 11 9
7 7 7 6 6 5 5 4 4 4 5 6 6 6 7 7 7 6 7 7 8 8 9 9 10 10 10 11 11 13 11 9 9 10 12 14 12 12 10 11 13 10 12
7 7 6 6 5 5 5 5 5 6 5 5 6 7 6 7 6 10 8 7 6 9 9 9 9 11 16 14 11 11 12 10 10 10 11 12 13 12 12 10 11 12 12
7 7 6 5 5 5 6 6 6 6 6 6 6 6 7 6 15 16 14 9 11 12 11 12 12 11 14 18 20 22 18 13 14 11 11 12 14 12 10 10 11 13 14
7 6 6 5 6 6 5 5 5 5 5 5 5 5 7 5 14 16 17 10 11 11 12 12 12 8 11 12 16 20 17 19 19 15 15 14 16 13 14 16 13 10 12
7 6 5 5 5 5 5 5 5 4 5 5 6 5 6 6 15 16 17 10 10 11 10 10 11 12 12 14 14 11 10 10 11 9 11 15 13 12 11 9 12 12 11
7 6 5 5 4 4 4 3 2 3 3 3 4 5 6 8 16 16 15 11 9 9 7 7 9 12 16 22 14 14 12 10 10 18 20 21 21 18 15 8 8 9 8
6 6 5 5 4 2 1 2 1 2 4 5 6 5 6 7 14 15 15 6 9 7 6 7 11 13 20 21 12 9 11 9 10 10 9 9 10 10 14 7 7 7 4
7 6 5 4 2 1 1 2 2 3 3 4 4 4 6 5 8 18 19 9 7 8 6 8 6 17 20 19 15 6 8 10 11 7 5 5 4 4 5 6 6 5 5
7 6 6 3 2 2 0 3 3 3 3 5 4 4 4 5 10 13 17 17 17 7 9 10 9 17 18 17 10 16 14 10 4 4 3 4 3 4 5 4 4 5 4
6 6 4 3 1 1 1 3 3 3 2 3 3 3 4 4 4 15 17 17 16 11 9 12 17 15 13 8 12 14 9 5 4 3 3 3 4 4 5 4 3 3 3
7 5 4 4 2 1 1 1 1 2 2 3 3 3 3 4 5 5 5 5 13 11 6 5 7 8 8 8 5 8 6 7 4 2 2 3 3 4 4 4 3 5 3
5 5 4 3 2 1 1 2 2 4 4 3 3 4 6 6 5 13 13 7 8 11 8 3 3 3 4 4 5 5 5 6 6 6 5 4 3 3 3 3 3 3 3
5 4 3 2 1 0 1 3 6 8 11 12 12 9 5 11 17 17 17 17 19 11 2 2 3 2 3 4 4 4 4 6 6 6 5 5 5 4 3 3 3 3 3
6 5 3 2 1 2 2 0 3 6 10 10 11 10 14 15 18 17 15 16 7 4 3 2 2 3 3 3 4 3 3 4 4 4 5 5 5 4 4 4 3 2 3
5 5 3 3 3 2 1 2 2 2 2 5 10 10 10 15 14 13 13 6 3 5 2 2 1 2 2 3 3 4 3 4 4 4 4 4 4 3 3 3 3 3 2
5 3 4 3 3 3 2 2 3 3 2 3 3 5 5 12 10 11 10 3 1 3 3 2 2 1 2 3 3 3 3 3 3 3 3 3 3 2 3 3 3 5 4
4 5 5 3 2 2 2 2 2 2 2 3 2 3 3 3 4 4 3 3 3 3 3 3 3 2 0 1 2 3 3 3 4 3 3 3 3 3 3 3 3 2 2
4 4 5 3 3 4 3 3 2 1 2 2 3 3 10 3 1 1 1 2 2 3 3 3 3 3 3 1 1 1 1 2 2 2 3 3 3 3 3 2 2 2 2
4 4 3 4 3 3 3 3 3 2 2 2 3 3 7 1 1 1 1 1 0 1 1 2 2 2 3 3 2 1 1 1 2 2 3 2 2 3 2 2 3 2 2
5 5 4 3 3 3 3 2 2 2 3 3 2 3 2 2 2 2 3 2 1 2 2 2 3 2 2 2 3 2 2 2 2 2 1 2 2 2 1 1 1 2 2
5 5 5 4 3 3 3 2 2 3 3 3 3 3 3 3 3 4 4 3 3 3 3 3 3 4 3 3 3 3 3 3 3 3 4 2 2 2 1 1 1 2 2
4 4 4 3 3 3 2 3 3 2 3 3 3 3 3 3 3 4 4 3 3 3 4 4 4 5 6 6 5 6 6 7 5 5 3 3 4 3 2 2 2 2 2
4 4 3 3 3 3 3 3 3 3 3 3 3 4 4 4 4 4 3 4 4 5 5 4 5 7 7 6 7 8 8 9 8 9 6 4 4 4 3 4 4 3 3
Wind_Direction
99 99 96 89 81 77 74 68 56 42 26 30 22 18 9 356 357 351 340 337 346 334 327 321 311 305 305 304 300 295 290 284 283 295 299 306 304 307 308 302 278 280 277
108 101 94 93 87 81 74 63 56 46 34 27 18 8 358 352 347 347 334 331 343 334 324 322 314 319 310 308 304 299 289 288 288 290 298 303 301 306 297 293 290 288 274
104 102 95 90 89 83 68 53 44 34 28 19 21 11 355 349 340 332 320 326 326 317 312 313 307 313 309 309 303 301 301 300 294 289 294 301 301 301 297 298 298 292 272
107 102 100 94 90 85 78 62 42 24 27 17 7 355 342 331 320 310 323 321 312 309 302 302 304 307 307 311 309 310 305 301 293 287 289 297 299 301 293 298 298 298 298
119 111 105 101 90 85 69 49 35 34 22 6 354 341 328 328 327 335 325 311 302 310 308 306 304 306 307 312 319 314 308 302 301 293 292 294 295 303 302 303 297 307 303
119 113 112 109 100 64 46 30 25 16 8 355 344 327 320 327 329 334 337 328 328 323 323 325 327 322 326 316 311 303 305 304 301 297 293 293 296 303 304 304 304 303 306
127 130 121 99 74 51 37 27 16 5 346 330 314 309 308 305 329 338 340 331 329 328 328 328 329 325 315 309 307 303 296 290 296 301 299 303 303 310 306 304 301 299 300
131 123 108 95 79 53 36 23 1 352 336 317 307 293 298 312 325 332 340 337 332 331 324 325 322 312 308 313 313 314 315 298 288 286 280 286 287 295 303 313 310 300 289
139 128 110 93 83 53 24 350 322 339 308 267 310 310 306 305 323 332 343 335 325 312 304 314 308 304 305 321 323 314 314 306 308 310 311 317 322 340 351 335 332 318 321
139 123 112 101 82 82 271 311 309 314 314 323 315 298 286 296 322 332 339 326 314 305 289 293 303 320 325 326 318 315 313 321 335 328 336 348 13 357 9 6 336 330 318
125 115 107 89 109 177 14 344 290 290 296 264 277 299 305 309 324 335 333 328 312 310 316 316 311 315 325 325 340 321 333 346 336 334 335 332 334 350 2 357 358 357 346
132 122 97 88 61 68 93 298 297 315 340 328 337 331 310 303 312 320 325 324 317 319 316 318 315 317 327 335 353 349 350 341 336 337 350 333 336 337 336 343 349 1 6
111 100 115 104 125 202 146 305 327 359 1 317 324 293 280 280 276 307 313 312 316 323 307 307 321 328 349 359 357 5 351 341 345 0 346 326 336 324 320 316 304 311 347
121 132 134 125 98 82 317 279 292 323 318 265 266 274 291 289 287 295 282 316 322 322 304 303 313 355 7 2 349 5 353 350 338 321 317 308 316 338 336 328 335 345 23
135 135 128 122 103 16 328 249 247 248 214 247 273 293 305 306 286 319 328 327 315 309 314 1 3 356 352 356 1 356 356 354 356 346 356 341 327 330 347 340 349 3 37
141 134 130 118 108 85 236 279 307 309 322 316 311 303 286 302 326 324 318 320 320 327 54 25 355 353 1 2 357 340 354 357 349 348 1 355 348 348 348 339 11 24 27
134 146 134 126 172 209 214 202 308 320 330 331 332 326 336 333 324 317 322 320 341 27 77 27 31 14 359 354 350 334 335 344 336 359 4 357 346 337 9 359 343 21 7
135 140 148 186 205 211 223 262 253 234 284 314 327 337 345 340 332 347 339 351 18 22 71 94 29 359 354 358 357 353 338 350 3 3 8 359 352 347 349 354 352 345 8
150 167 185 193 196 212 229 243 235 246 253 264 318 330 351 346 351 4 16 42 59 22 2 18 9 23 20 359 352 352 346 356 352 348 345 350 339 9 358 358 351 8 19
168 187 180 181 205 222 237 236 247 257 275 290 295 265 309 29 22 341 357 9 12 6 352 352 335 342 49 60 355 349 349 3 5 356 342 349 342 0 13 2 7 23 5
163 175 179 182 200 205 204 219 229 228 247 269 267 261 298 130 170 197 343 10 15 0 337 326 326 326 330 2 31 7 11 3 356 351 331 344 354 3 336 0 12 24 22
163 173 177 193 200 204 217 214 210 223 231 246 266 283 318 86 143 220 204 203 224 246 253 294 304 310 318 323 336 342 10 358 338 348 338 340 352 358 352 14 353 3 19
169 176 191 202 195 200 198 213 206 204 225 238 245 256 264 235 234 235 236 238 245 257 253 249 263 267 254 285 291 282 264 261 273 219 282 327 334 342 358 348 342 343 13
178 184 191 192 176 175 183 211 215 223 227 235 244 247 242 235 237 245 240 226 227 231 228 249 243 256 258 252 263 267 262 252 240 233 206 221 281 316 353 356 283 262 255
173 180 179 173 178 185 189 207 218 220 231 228 242 241 240 242 251 248 236 230 229 237 243 235 237 245 249 255 257 262 257 264 243 226 199 199 225 226 219 226 250 275 259
175 174 173 166 182 193 203 220 228 226 232 238 241 247 245 246 247 243 240 245 240 246 245 238 238 244 247 250 251 258 253 250 241 226 202 202 215 232 208 230 237 228 244